Location: Laura�t
(43.9341°N, 0.2497°E)
Time: 22:33:25
(UTC+00:00)

Cosmos 1777 Rocket - Pass Details

Date: 03 March 2021
Orbit: 759 x 775 km, 74.0° (Epoch: 17 April)

Event Time Altitude Azimuth Distance (km) Brightness Sun altitude
Rises 20:09:51 0° 336° (NNW) 3,245 7.8 -25.7°
Reaches altitude 10° 20:12:15 10° 334° (NNW) 2,312 7.0 -26.1°
Maximum altitude 20:17:27 66° 253° (WSW) 835 4.2 -27.0°
Enters shadow 20:18:19 55° 205° (SSW) 911 4.3 -27.2°
